Regional Weather Roundup
Issued by NWS

Home | Current Version | Previous Version | Graphics & Text | Print | Product List | Glossary On
Versions: 1 2 3 4 5 6 7 8 9 10 11 12 13 14 15 16 17 18 19 20 21 22 23 24 25 26 27 28 29 30 31 32 33 34 35 36 37 38 39 40 41 42 43 44 45 46 47 48 49 50
647
ASUS45 KBOI 281510
RWRID

IDAHO REGIONAL WEATHER ROUNDUP
NATIONAL WEATHER SERVICE BOISE ID
900 AM MDT FRI JUL 28 2017

NOTE: "FAIR" INDICATES FEW OR NO CLOUDS BELOW 12000 FEET
WITH NO SIGNIFICANT WEATHER AND/OR OBSTRUCTIONS TO VISIBILITY

IDZ012-014-281600-
SOUTHWEST IDAHO


CITY           SKY/WX    TMP DP  RH WIND       PRES   REMARKS
BOISE          MOSUNNY   74  47  38 CALM      30.05S
CALDWELL       MOSUNNY   73  54  51 CALM      30.04R
MOUNTAIN HOME  SUNNY     74  54  49 SE17      30.07R
$$

IDZ016-017-281600-
SOUTHCENTRAL IDAHO


CITY           SKY/WX    TMP DP  RH WIND       PRES   REMARKS
BURLEY         SUNNY     66  57  72 E9        30.14S
JEROME         SUNNY     71  51  49 NE14      30.14S
TWIN FALLS     SUNNY     68  54  60 E6        30.14S
$$

IDZ019>023-281600-
SOUTHEAST IDAHO


CITY           SKY/WX    TMP DP  RH WIND       PRES   REMARKS
IDAHO FALLS    SUNNY     60  54  80 N3        30.23R
POCATELLO      SUNNY     65  51  60 CALM      30.21R
REXBURG        SUNNY     58  52  80 N5        30.24R
$$

IDZ006-010-011-018-031-032-281600-
CENTRAL IDAHO MOUNTAINS


CITY           SKY/WX    TMP DP  RH WIND       PRES   REMARKS
MCCALL         SUNNY     62  49  62 CALM      30.18S
HAILEY         SUNNY     63  48  59 NW10      30.26S
STANLEY          N/A     53  45  74 N3        30.34S
SALMON         NOT AVBL
CHALLIS        SUNNY     59  51  75 VRB3      30.27S
$$

IDZ002-004-006-007-026-281600-
NORTHERN IDAHO


CITY           SKY/WX    TMP DP  RH WIND       PRES   REMARKS
LEWISTON       SUNNY     71  46  40 CALM      30.02R
LOWELL         NOT AVBL
COEUR D`ALENE  SUNNY     69  51  52 S8        30.05R
MULLAN PASS    MOSUNNY   63  35  35 VRB3      30.24R
$$




USA.gov is the U.S. government's official web portal to all federal, state and local government web resources and services.